This is the latest recevied weather packets stored in our database for station/object JO1YDG-13. If no packets are shown the sender has not sent any weather packets the latest 1 day(s).
| Time | Temp. | Humidity | Pressure | Rain* | Wind** | Luminosity | Snow |
|---|---|---|---|---|---|---|---|
| 1777985829 | 14.44° C | 57% | 994.2 hPa | 0 mm | 0.89 m/s, 203° | - | - |
| 1777985531 | 14.44° C | 56% | 994.2 hPa | 0 mm | 0.89 m/s, 210° | - | - |
| 1777985231 | 14.44° C | 56% | 994 hPa | 0 mm | 1.34 m/s, 193° | - | - |
| 1777984931 | 15° C | 55% | 994 hPa | 0 mm | 1.34 m/s, 277° | - | - |
| 1777984630 | 15° C | 55% | 993.8 hPa | 0 mm | 2.24 m/s, 276° | - | - |
| 1777984329 | 15° C | 55% | 993.8 hPa | 0 mm | 1.34 m/s, 294° | - | - |
| 1777984029 | 15° C | 55% | 993.8 hPa | 0 mm | 1.34 m/s, 279° | - | - |
| 1777983731 | 15° C | 53% | 993.8 hPa | 0 mm | 2.24 m/s, 261° | - | - |
| 1777983431 | 15° C | 53% | 993.8 hPa | 0 mm | 2.24 m/s, 258° | - | - |
| 1777983130 | 15° C | 53% | 993.8 hPa | 0 mm | 1.34 m/s, 292° | - | - |
| 1777982830 | 15° C | 53% | 993.8 hPa | 0 mm | 2.24 m/s, 207° | - | - |
| 1777982530 | 15° C | 52% | 993.7 hPa | 0 mm | 1.34 m/s, 267° | - | - |
| 1777982230 | 15.56° C | 52% | 993.7 hPa | 0 mm | 2.24 m/s, 248° | - | - |
| 1777981929 | 15.56° C | 52% | 993.7 hPa | 0 mm | 1.34 m/s, 244° | - | - |
| 1777981629 | 15.56° C | 52% | 993.5 hPa | 0 mm | 2.24 m/s, 258° | - | - |
| 1777981329 | 15.56° C | 51% | 993.5 hPa | 0 mm | 1.34 m/s, 236° | - | - |
| 1777981031 | 15.56° C | 51% | 993.2 hPa | 0 mm | 0.89 m/s, 254° | - | - |
| 1777980730 | 15.56° C | 51% | 993.2 hPa | 0 mm | 2.24 m/s, 257° | - | - |
| 1777980429 | 15.56° C | 51% | 993.1 hPa | 0 mm | 1.34 m/s, 258° | - | - |
| 1777980129 | 15.56° C | 51% | 993.1 hPa | 0 mm | 1.34 m/s, 193° | - | - |
| 1777979830 | 15.56° C | 51% | 993.1 hPa | 0 mm | 0.89 m/s, 283° | - | - |
| 1777979530 | 16.11° C | 50% | 992.8 hPa | 0 mm | 1.34 m/s, 193° | - | - |
| 1777979229 | 16.11° C | 50% | 992.8 hPa | 0 mm | 0.89 m/s, 260° | - | - |
| 1777978929 | 16.11° C | 50% | 992.6 hPa | 0 mm | 2.24 m/s, 192° | - | - |
| 1777978631 | 16.11° C | 50% | 992.6 hPa | 0 mm | 1.34 m/s, 208° | - | - |
* Rain latest hour (hover to see other rain measurements)
** Current wind speed in m/s (hover to see current wind gust speed)